This is the latest recevied weather packets stored in our database for station/object NQ9F. If no packets are shown the sender has not sent any weather packets the latest 1 day(s).
| Time | Temp. | Humidity | Pressure | Rain* | Wind** | Luminosity | Snow |
|---|---|---|---|---|---|---|---|
| 1778075063 | 10° C | 90% | 1015.8 hPa | 0 mm | - | 41 W/m² | - |
| 1778074154 | 10° C | 91% | 1015 hPa | 0 mm | - | 18 W/m² | - |
| 1778073549 | 10° C | 92% | 1014.5 hPa | 0 mm | - | 39 W/m² | - |
| 1778072035 | 10° C | 92% | 1014.2 hPa | 0 mm | - | 47 W/m² | - |
| 1778071733 | 10° C | 92% | 1013.9 hPa | 0 mm | - | 28 W/m² | - |
| 1778071429 | 10° C | 92% | 1013.8 hPa | 0 mm | - | 30 W/m² | - |
| 1778071127 | 10° C | 92% | 1013.5 hPa | 0 mm | - | 44 W/m² | - |
| 1778070219 | 10° C | 93% | 1013.5 hPa | 0 mm | - | 16 W/m² | - |
| 1778069614 | 10° C | 93% | 1013.9 hPa | 0 mm | - | 8 W/m² | - |
| 1778069311 | 10° C | 93% | 1013.8 hPa | 0 mm | - | 9 W/m² | - |
| 1778069009 | 10° C | 94% | 1013.5 hPa | 0 mm | - | 7 W/m² | - |
| 1778068706 | 9.44° C | 94% | 1013.6 hPa | 0 mm | - | 4 W/m² | - |
| 1778067498 | 10° C | 92% | 1013.3 hPa | 0 mm | - | 0 W/m² | - |
| 1778067195 | 10° C | 91% | 1013.3 hPa | 0 mm | - | 0 W/m² | - |
| 1778066286 | 10.56° C | 89% | 1013 hPa | 0 mm | - | 0 W/m² | - |
| 1778064167 | 11.11° C | 84% | 1012.5 hPa | 0 mm | - | 0 W/m² | - |
| 1778063864 | 11.11° C | 84% | 1012.6 hPa | 0 mm | - | 0 W/m² | - |
| 1778063561 | 11.11° C | 84% | 1012.3 hPa | 0 mm | - | 0 W/m² | - |
| 1778062350 | 11.67° C | 84% | 1012.1 hPa | 0 mm | - | 0 W/m² | - |
| 1778062048 | 12.22° C | 83% | 1012.2 hPa | 0 mm | - | 0 W/m² | - |
| 1778061746 | 12.22° C | 83% | 1011.8 hPa | 0 mm | - | 0 W/m² | - |
| 1778061444 | 12.22° C | 83% | 1011.8 hPa | 0 mm | - | 0 W/m² | - |
| 1778061140 | 12.22° C | 82% | 1011.7 hPa | 0 mm | - | 0 W/m² | - |
| 1778059930 | 12.78° C | 82% | 1011.4 hPa | 0 mm | - | 0 W/m² | - |
| 1778057204 | 13.33° C | 83% | 1011.3 hPa | 0 mm | - | 0 W/m² | - |
* Rain latest hour (hover to see other rain measurements)
** Current wind speed in m/s (hover to see current wind gust speed)